Regional Weather Roundup
Issued by NWS Newport/Morehead, NC

Current Version | Previous Version | Text Only | Print | Product List | Glossary On
Versions: 1 2 3 4 5 6 7 8 9 10 11 12 13 14 15 16 17 18 19 20 21 22 23 24 25 26 27 28 29 30 31 32 33 34 35 36 37 38 39 40 41 42 43 44 45 46 47 48 49 50
000 ASUS42 KMHX 271324 RWRMHX WEATHER ROUNDUP FOR EASTERN NORTH CAROLINA NATIONAL WEATHER SERVICE NEWPORT/MOREHEAD CITY NC 800 AM EST FRI FEB 27 2015 NOTE: "FAIR" INDICATES FEW OR NO CLOUDS BELOW 12,000 FEET WITH NO SIGNIFICANT WEATHER AND/OR OBSTRUCTIONS TO VISIBILITY NCZ015>017-031-032-045>047-102-103-271400- NORTH COAST CITY SKY/WX TMP DP RH WIND PRES REMARKS EDENTON SUNNY 30 29 96 CALM 30.35R FOG ELIZABETH CITY SUNNY 30 27 88 N3 30.33R KITTY HAWK N/A N/A N/A N/A N6 30.30R MANTEO N/A 34 28 80 N7 30.31R $$ NCZ045>047-081-094-103-104-271400- CENTRAL COAST CITY SKY/WX TMP DP RH WIND PRES REMARKS FRISCO CLOUDY 35 31 85 N8 30.29R SWANQUARTER N/A 32 N/A N/A N2 30.30R $$ NCZ095-097-098-100-101-271400- SOUTHERN COAST CITY SKY/WX TMP DP RH WIND PRES REMARKS BEAUFORT PTSUNNY 33 28 81 N8 30.32R CEDAR ISLAND N/A 34 N/A N/A N14 30.36R JACKSONVILLE PTSUNNY 33 30 88 N7 30.33R PINEY ISLAND N/A N/A N/A N/A MISG 30.31R WILMINGTON PTSUNNY 34 31 88 N6 30.32R FOG $$ NCZ011>013-027>030-043-044-078>080-089-090>093-098-271400- COASTAL PLAIN CITY SKY/WX TMP DP RH WIND PRES REMARKS AHOSKIE N/A N/A N/A N/A CALM 30.34R FOG CLINTON MOSUNNY 31 31 100 CALM 30.34R FOG ELIZABETHTOWN PTSUNNY 32 32 99 CALM 30.34R FOG GOLDSBORO MOSUNNY 29 29 99 CALM 30.32R FOG GREENVILLE FOG 30 30 100 CALM 30.34R VSB 1 HAVELOCK PTSUNNY 34 28 79 N8 30.33R KENANSVILLE PTSUNNY 32 32 100 CALM 30.36R FOG KINSTON FOG 30 30 100 CALM 30.35R VSB 1 NEW BERN PTSUNNY 33 29 85 N5 30.34R RICHLANDS PTSUNNY 34 28 80 CALM 30.35R ROCKY MOUNT SUNNY 27 27 100 CALM 30.34R FOG WASHINGTON MOSUNNY 30 29 95 CALM 30.35R FOG WHITEVILLE CLOUDY 33 31 93 CALM 30.33R FOG $$ AMZ130-135-150-152-154-156-158-170-250-252-270-ANZ085-086-088-633-658-670-271400- MARINE OBSERVATIONS STATION/POSITION TIME TEMP WIND PRES WAVE SWELL AIR SEA DIR/SP/G HT/PER HT/PER (UTC) (F) (DEG/KT/KT) (MB) (FT/S) (FT/S) CHESAPEAKE LIGHT 1300 33 10/ 9/ 11 1027.4 64 E VA BEACH 1250 42 58 10/ 16/ 21 1024.5 8/10 7/10 DUCK 1200 10/ 10/ 12 1024.1 2 E DUCK 1211 35 N/A 6/11 3/11 10 NE DUCK 1252 36 N/A 7/13 3/13 OREGON INLET 1300 35 36 340/ 8/ 11 1026.2 HATTERAS CG 1206 35 40 10/ 14/ 17 1024.8 CAPE LOOKOUT 1300 34 350/ 12/ 14 1026.2 BEAUFORT LAB 1300 33 40 360/ 9/ 11 1025.7 27 SE WRIGHTSVLE NOT AVBL 5 SE WRIGHTSVLE NOT AVBL 225 S CAPE HAT 1250 62 70 340/ 10/ 14 1021.8 8/ 8 8/ 8 41 SE CHARLESTON 1250 47 65 20/ 16/ 21 1024.6 5/ 8 3/ 8 $$

USA.gov is the U.S. government's official web portal to all federal, state and local government web resources and services.